Temp
-21 -21 -20 -20 -20 -19 -19 -20 -19 -18 -18 -17 -17 -17 -16 -16 -16 -16 -16 -17 -17 -17 -17 -17 -17 -17 -17 -16 -16 -16 -16 -16 -16 -16 -16 -16 -16 -15 -15 -16 -16 -16 -16
-23 -22 -22 -21 -20 -20 -20 -20 -20 -20 -19 -18 -18 -17 -17 -17 -17 -16 -17 -17 -17 -17 -17 -17 -17 -17 -17 -17 -17 -17 -17 -17 -17 -16 -16 -16 -16 -16 -16 -17 -17 -17 -17
-23 -23 -22 -22 -22 -21 -21 -20 -20 -20 -20 -19 -19 -18 -18 -18 -18 -17 -17 -17 -17 -17 -17 -17 -17 -17 -17 -17 -17 -17 -17 -17 -17 -16 -16 -16 -17 -17 -18 -18 -17 -17 -17
-23 -23 -23 -22 -22 -21 -21 -21 -20 -20 -19 -20 -19 -19 -19 -18 -18 -19 -18 -17 -17 -17 -17 -17 -17 -17 -17 -18 -18 -18 -18 -18 -18 -17 -17 -17 -18 -18 -18 -18 -18 -18 -18
-23 -23 -23 -22 -22 -22 -21 -21 -20 -20 -20 -20 -19 -19 -19 -19 -19 -19 -19 -18 -18 -18 -18 -17 -17 -17 -18 -18 -18 -18 -18 -18 -18 -18 -18 -18 -18 -18 -18 -18 -17 -17 -18
-25 -24 -23 -23 -22 -22 -21 -21 -21 -20 -20 -20 -20 -20 -20 -19 -19 -19 -19 -19 -19 -19 -19 -19 -18 -18 -18 -18 -18 -18 -18 -18 -18 -18 -18 -18 -18 -18 -18 -18 -18 -18 -18
-25 -26 -25 -24 -23 -22 -22 -22 -21 -21 -21 -20 -20 -20 -20 -21 -21 -20 -19 -19 -20 -19 -18 -18 -19 -18 -18 -18 -18 -18 -18 -18 -18 -18 -18 -18 -18 -18 -18 -19 -18 -19 -19
-26 -26 -26 -26 -25 -23 -22 -22 -22 -22 -21 -21 -21 -21 -20 -20 -20 -20 -20 -21 -21 -20 -19 -19 -19 -19 -19 -19 -19 -19 -19 -19 -19 -18 -19 -19 -19 -19 -19 -19 -19 -19 -19
-26 -26 -26 -26 -26 -25 -24 -23 -23 -22 -22 -22 -21 -21 -21 -21 -21 -21 -21 -20 -20 -20 -20 -20 -20 -21 -20 -20 -20 -20 -20 -19 -19 -19 -19 -19 -19 -20 -20 -20 -20 -19 -19
-26 -26 -26 -26 -26 -25 -25 -24 -24 -23 -23 -23 -23 -22 -22 -22 -22 -21 -21 -21 -20 -20 -20 -20 -20 -20 -20 -20 -20 -20 -20 -20 -20 -20 -20 -20 -20 -20 -20 -20 -20 -20 -20
-27 -27 -26 -27 -27 -26 -25 -25 -25 -25 -24 -24 -23 -23 -23 -22 -22 -22 -22 -21 -21 -21 -21 -21 -21 -21 -21 -21 -20 -20 -20 -20 -20 -21 -21 -21 -21 -20 -20 -20 -20 -20 -20
-27 -27 -27 -27 -27 -27 -26 -26 -26 -25 -25 -25 -24 -24 -23 -23 -23 -23 -22 -22 -22 -22 -21 -21 -21 -21 -21 -21 -21 -21 -21 -21 -21 -21 -21 -21 -21 -20 -21 -21 -21 -21 -21
-27 -27 -27 -27 -27 -27 -27 -26 -26 -26 -26 -26 -26 -25 -25 -24 -24 -23 -23 -23 -22 -22 -22 -22 -22 -22 -21 -21 -21 -21 -21 -21 -21 -21 -21 -21 -22 -21 -21 -22 -22 -22 -22
-27 -27 -28 -27 -27 -27 -27 -27 -26 -26 -26 -26 -26 -26 -26 -25 -25 -25 -24 -24 -23 -23 -23 -23 -23 -22 -22 -22 -22 -22 -22 -22 -22 -22 -22 -22 -22 -23 -23 -23 -22 -22 -23
-29 -28 -28 -28 -28 -27 -27 -27 -27 -27 -26 -26 -26 -26 -26 -26 -26 -25 -25 -25 -25 -25 -24 -24 -24 -24 -23 -23 -23 -23 -23 -23 -23 -23 -23 -23 -23 -23 -23 -23 -23 -24 -23
-29 -29 -29 -29 -28 -28 -28 -27 -27 -27 -27 -26 -26 -26 -26 -26 -26 -25 -25 -25 -25 -25 -25 -25 -25 -24 -24 -24 -24 -24 -24 -24 -24 -24 -24 -24 -24 -24 -24 -24 -25 -24 -24
-30 -30 -29 -29 -29 -29 -29 -28 -28 -28 -27 -27 -27 -27 -26 -26 -26 -26 -25 -25 -25 -25 -25 -25 -25 -24 -24 -24 -24 -24 -24 -24 -24 -25 -25 -25 -25 -25 -25 -25 -25 -25 -24
-31 -31 -31 -30 -30 -29 -29 -29 -29 -29 -29 -28 -28 -27 -27 -27 -27 -26 -26 -26 -25 -25 -25 -25 -25 -25 -25 -25 -25 -24 -25 -25 -25 -25 -25 -26 -25 -25 -25 -25 -25 -25 -25
-32 -32 -32 -32 -31 -31 -30 -30 -29 -29 -29 -29 -29 -28 -28 -27 -27 -27 -27 -26 -26 -26 -26 -26 -26 -26 -26 -26 -26 -25 -25 -25 -25 -26 -26 -26 -26 -26 -26 -26 -25 -25 -25
-33 -33 -33 -32 -32 -32 -32 -31 -31 -30 -30 -29 -29 -29 -29 -28 -28 -27 -27 -27 -26 -26 -26 -26 -26 -27 -26 -26 -26 -26 -26 -26 -26 -26 -26 -26 -26 -26 -26 -26 -26 -26 -26
-33 -33 -33 -33 -32 -32 -32 -32 -32 -31 -31 -30 -30 -30 -29 -29 -28 -28 -28 -28 -27 -27 -27 -27 -27 -27 -27 -26 -26 -26 -26 -26 -26 -26 -26 -26 -27 -27 -27 -26 -26 -27 -27
-33 -33 -33 -33 -33 -32 -32 -32 -32 -32 -32 -31 -31 -30 -30 -30 -29 -29 -28 -28 -28 -28 -28 -28 -28 -28 -28 -28 -27 -27 -27 -27 -27 -27 -27 -27 -27 -27 -27 -27 -27 -27 -27
-33 -33 -33 -33 -33 -32 -32 -32 -32 -32 -32 -32 -32 -31 -31 -30 -30 -30 -29 -29 -29 -28 -28 -28 -28 -28 -28 -28 -28 -28 -28 -28 -28 -28 -28 -28 -28 -28 -28 -28 -28 -28 -28
-33 -33 -33 -33 -33 -33 -32 -32 -32 -32 -32 -32 -32 -32 -32 -31 -31 -30 -30 -30 -30 -29 -29 -29 -29 -29 -28 -28 -28 -28 -28 -28 -28 -28 -28 -28 -28 -28 -28 -28 -28 -28 -28
-33 -33 -33 -33 -33 -33 -33 -32 -32 -32 -32 -32 -32 -32 -32 -32 -32 -32 -31 -31 -30 -30 -30 -30 -29 -29 -29 -29 -29 -29 -29 -29 -29 -29 -29 -29 -29 -29 -29 -29 -29 -29 -29
-34 -34 -34 -33 -33 -33 -33 -33 -33 -33 -33 -33 -33 -33 -33 -33 -32 -32 -32 -32 -31 -31 -31 -31 -30 -30 -30 -30 -29 -29 -29 -29 -29 -29 -29 -29 -29 -29 -29 -30 -30 -30 -30
Height
5454 5465 5475 5484 5495 5504 5514 5524 5532 5541 5549 5556 5562 5571 5581 5588 5599 5601 5606 5613 5620 5626 5632 5638 5644 5649 5653 5658 5663 5667 5671 5674 5677 5680 5682 5684 5685 5686 5688 5689 5689 5689 5689
5443 5453 5462 5471 5482 5491 5500 5510 5518 5526 5536 5544 5550 5557 5566 5577 5585 5592 5598 5602 5607 5613 5620 5625 5631 5636 5641 5646 5650 5654 5657 5660 5664 5667 5669 5672 5673 5675 5676 5676 5676 5676 5676
5433 5443 5452 5461 5470 5478 5486 5497 5506 5514 5523 5531 5539 5545 5553 5561 5568 5576 5584 5590 5595 5601 5606 5612 5617 5621 5627 5632 5637 5640 5643 5647 5650 5653 5656 5659 5661 5662 5662 5662 5662 5662 5662
5425 5434 5443 5451 5459 5467 5475 5482 5493 5501 5509 5518 5527 5536 5541 5546 5553 5560 5567 5576 5581 5586 5592 5598 5604 5609 5614 5618 5622 5626 5629 5633 5636 5639 5642 5645 5646 5648 5648 5647 5648 5649 5649
5416 5425 5434 5442 5449 5455 5463 5470 5478 5488 5498 5505 5513 5521 5528 5536 5541 5546 5553 5561 5566 5574 5580 5586 5591 5596 5600 5604 5607 5611 5614 5619 5622 5625 5627 5630 5631 5632 5632 5633 5634 5633 5633
5407 5417 5423 5430 5438 5445 5453 5459 5466 5474 5483 5491 5498 5505 5513 5521 5529 5536 5540 5546 5551 5557 5565 5571 5577 5582 5586 5591 5594 5597 5601 5605 5607 5610 5613 5614 5615 5616 5617 5619 5620 5618 5616
5401 5407 5413 5420 5426 5433 5440 5446 5453 5460 5468 5476 5483 5491 5498 5506 5513 5520 5526 5532 5536 5544 5550 5556 5563 5569 5572 5575 5579 5583 5587 5590 5593 5597 5598 5599 5599 5601 5604 5605 5604 5603 5601
5396 5401 5406 5411 5414 5419 5427 5433 5440 5447 5454 5461 5468 5475 5483 5490 5496 5503 5510 5516 5522 5530 5536 5543 5547 5553 5557 5560 5564 5568 5572 5573 5578 5583 5581 5583 5586 5586 5588 5589 5587 5587 5586
5390 5395 5399 5402 5406 5409 5414 5421 5427 5433 5440 5447 5453 5460 5467 5473 5480 5486 5493 5500 5507 5513 5519 5525 5530 5536 5541 5546 5548 5552 5556 5559 5563 5565 5567 5570 5570 5571 5573 5572 5572 5572 5572
5383 5386 5390 5394 5398 5401 5404 5409 5414 5420 5426 5432 5438 5445 5452 5457 5464 5470 5476 5483 5490 5497 5504 5508 5513 5518 5521 5526 5531 5536 5541 5544 5547 5549 5551 5552 5554 5555 5557 5558 5556 5556 5556
5377 5380 5384 5387 5389 5393 5396 5400 5404 5408 5413 5419 5425 5431 5438 5443 5449 5454 5460 5467 5472 5478 5484 5490 5495 5499 5504 5509 5514 5519 5523 5526 5529 5532 5535 5537 5539 5541 5542 5542 5542 5542 5542
5372 5374 5376 5378 5381 5384 5388 5391 5395 5398 5402 5407 5411 5416 5422 5427 5432 5438 5444 5450 5455 5461 5467 5472 5477 5480 5486 5491 5497 5502 5505 5508 5512 5515 5518 5521 5523 5524 5525 5526 5524 5526 5527
5366 5367 5369 5370 5373 5375 5378 5382 5385 5388 5391 5395 5399 5404 5408 5412 5417 5422 5428 5433 5440 5445 5450 5454 5459 5464 5469 5474 5480 5483 5487 5491 5495 5498 5501 5504 5505 5506 5509 5509 5510 5510 5511
5360 5361 5362 5363 5365 5366 5368 5371 5374 5377 5380 5384 5388 5392 5396 5399 5403 5408 5413 5418 5423 5428 5433 5438 5443 5448 5453 5458 5461 5466 5471 5474 5477 5480 5483 5485 5488 5490 5491 5492 5493 5494 5495
5353 5353 5354 5355 5356 5357 5359 5361 5363 5366 5368 5371 5375 5378 5382 5387 5391 5395 5399 5403 5408 5412 5417 5422 5427 5432 5437 5441 5445 5450 5452 5456 5460 5462 5465 5468 5471 5473 5474 5476 5477 5478 5479
5343 5343 5343 5344 5345 5347 5348 5350 5352 5354 5357 5359 5362 5365 5368 5372 5377 5381 5386 5389 5394 5399 5404 5409 5413 5418 5422 5426 5430 5434 5437 5441 5443 5446 5449 5452 5455 5457 5459 5461 5462 5463 5464
5331 5330 5329 5329 5330 5332 5335 5337 5339 5341 5343 5346 5349 5352 5355 5358 5362 5366 5371 5375 5380 5385 5390 5395 5400 5404 5408 5412 5417 5420 5423 5425 5428 5431 5435 5438 5441 5443 5445 5447 5448 5449 5450
5320 5318 5315 5313 5312 5314 5316 5319 5323 5326 5329 5332 5335 5338 5342 5345 5348 5352 5356 5360 5365 5369 5373 5378 5383 5388 5392 5397 5401 5405 5408 5411 5415 5419 5422 5424 5427 5429 5431 5433 5434 5435 5436
5311 5307 5303 5300 5298 5297 5297 5299 5302 5307 5312 5316 5320 5323 5327 5331 5336 5339 5342 5346 5350 5353 5358 5363 5368 5373 5377 5381 5386 5390 5394 5398 5401 5405 5407 5411 5413 5416 5418 5420 5421 5422 5423
5302 5298 5294 5290 5288 5286 5285 5284 5285 5288 5292 5297 5302 5307 5311 5316 5321 5325 5329 5333 5337 5341 5345 5349 5354 5359 5364 5368 5372 5376 5380 5384 5388 5391 5394 5397 5400 5403 5405 5406 5408 5409 5410
5293 5289 5285 5281 5277 5275 5274 5273 5273 5273 5275 5279 5284 5289 5294 5300 5305 5310 5315 5320 5324 5328 5332 5336 5341 5345 5350 5354 5359 5362 5366 5370 5374 5378 5381 5385 5388 5391 5393 5394 5395 5397 5399
5283 5279 5275 5270 5266 5263 5262 5262 5262 5262 5263 5264 5268 5272 5277 5283 5289 5295 5301 5306 5311 5316 5320 5324 5329 5333 5338 5342 5346 5350 5354 5358 5362 5366 5370 5373 5376 5379 5382 5384 5386 5387 5389
5271 5267 5263 5259 5255 5251 5250 5249 5249 5250 5251 5252 5254 5257 5261 5267 5273 5279 5285 5291 5297 5302 5307 5312 5317 5321 5326 5330 5335 5339 5343 5347 5351 5355 5359 5363 5366 5369 5371 5373 5375 5376 5377
5257 5253 5250 5246 5242 5239 5237 5236 5236 5237 5238 5240 5243 5245 5248 5252 5257 5263 5269 5275 5281 5287 5293 5298 5303 5308 5313 5318 5323 5328 5332 5336 5340 5344 5348 5351 5354 5357 5359 5361 5363 5365 5366
5242 5238 5234 5231 5227 5225 5223 5222 5223 5223 5225 5227 5230 5233 5236 5239 5243 5247 5253 5259 5265 5272 5277 5283 5289 5295 5301 5306 5310 5315 5319 5323 5328 5332 5336 5339 5342 5345 5348 5350 5352 5354 5355
5224 5220 5215 5211 5209 5208 5207 5208 5208 5209 5211 5213 5216 5220 5224 5227 5231 5235 5238 5243 5249 5256 5262 5268 5274 5280 5286 5291 5297 5302 5307 5312 5316 5320 5324 5327 5330 5333 5336 5339 5341 5343 5344
Wind_Speed
77 72 71 76 77 79 77 75 79 76 71 70 68 66 65 54 57 70 65 70 68 63 61 61 60 58 58 57 56 55 55 56 55 55 55 56 57 58 59 58 58 58 58
83 72 73 73 75 76 75 71 75 76 76 58 69 70 64 64 67 62 56 66 69 71 68 63 60 60 59 59 59 57 57 58 58 58 58 59 59 59 58 57 57 57 57
75 73 69 65 67 72 72 74 73 73 75 74 61 62 66 60 57 62 68 64 65 69 70 70 69 68 65 63 62 61 61 61 61 61 60 59 59 56 54 54 55 58 59
74 75 74 70 69 71 71 70 73 73 76 69 68 65 62 63 63 58 56 64 67 68 68 69 69 71 72 72 71 69 66 65 63 64 64 64 65 65 64 64 63 62 62
66 68 68 69 70 70 72 75 72 72 75 76 76 67 63 65 60 61 60 54 56 61 70 69 70 68 70 70 70 70 70 68 66 67 66 65 64 62 60 58 57 56 60
53 60 62 68 70 71 73 72 75 73 70 73 74 76 79 76 69 64 64 55 53 53 55 61 63 66 69 69 68 69 67 66 66 67 68 67 64 63 65 64 61 53 55
50 50 56 60 65 69 71 71 73 75 75 72 74 75 74 70 69 70 76 65 72 69 69 67 59 61 62 67 71 74 71 73 73 70 72 72 69 67 61 50 54 58 56
29 36 37 39 44 59 66 68 68 69 71 72 72 73 73 75 74 72 71 71 71 68 65 66 66 64 63 59 55 59 51 61 64 59 58 56 56 55 52 58 61 61 64
26 28 32 34 34 35 52 63 64 66 67 69 69 69 70 71 73 74 73 72 71 70 71 68 71 66 61 66 60 66 59 57 61 65 57 59 59 57 59 61 62 65 63
18 23 33 35 36 34 36 46 54 59 62 64 65 65 65 66 68 70 71 72 72 72 72 71 71 71 71 71 69 67 69 62 63 64 63 63 67 63 64 62 62 64 69
22 22 28 31 28 35 35 38 43 50 55 59 61 62 64 64 64 65 66 67 69 70 70 69 69 69 70 70 71 71 72 72 73 72 70 73 70 65 60 63 70 74 65
27 28 30 27 29 27 30 32 37 39 43 51 56 59 62 64 65 64 65 66 66 66 66 67 66 66 66 66 66 67 69 71 72 73 73 71 69 72 70 67 66 70 65
19 22 25 29 32 33 35 35 34 35 37 39 42 47 52 56 61 64 65 66 67 66 66 66 66 67 66 66 65 65 66 66 66 65 65 65 68 67 70 68 74 75 68
21 23 23 23 25 28 31 36 39 40 40 40 41 40 41 42 46 50 54 56 60 64 66 66 65 65 66 65 65 66 65 65 64 63 63 62 59 57 58 62 62 66 62
24 26 28 29 30 31 30 31 33 36 38 41 43 44 45 46 44 42 44 47 50 52 54 55 55 55 56 56 57 57 58 58 57 57 57 57 61 64 58 61 62 62 65
33 34 35 35 35 37 38 38 37 36 35 36 38 41 46 48 49 48 49 46 45 46 46 45 46 45 46 46 47 49 51 53 53 54 54 54 55 59 61 61 58 60 61
37 39 43 46 46 45 43 44 44 43 43 42 40 39 40 41 46 49 51 52 54 53 52 52 50 49 49 49 50 51 52 54 52 52 55 54 54 53 52 53 53 52 52
31 32 34 39 43 48 52 52 49 48 45 46 46 45 43 43 43 44 47 48 51 54 55 56 57 57 58 57 55 55 55 52 49 50 53 53 52 53 55 54 53 52 52
30 34 33 32 33 36 43 48 52 55 54 51 49 47 47 47 45 45 45 46 47 49 52 53 53 52 51 51 55 53 53 51 49 51 52 53 54 52 47 49 53 52 50
31 33 34 32 30 30 31 34 41 48 51 52 52 52 49 49 48 47 45 44 43 42 45 46 48 49 53 52 50 51 51 53 50 52 54 50 46 48 48 47 45 44 44
34 35 37 36 33 31 31 30 31 35 43 50 51 52 52 51 49 48 47 45 43 41 41 42 45 45 47 47 48 47 47 44 43 41 41 41 39 39 40 42 43 42 41
38 39 39 40 37 33 32 32 31 30 33 40 49 52 52 52 52 51 49 47 45 43 41 42 42 42 42 42 41 41 40 39 39 40 40 41 42 42 41 41 40 41 41
42 41 43 44 40 36 33 33 32 32 32 31 34 43 51 53 52 52 52 50 48 45 43 42 41 41 42 42 42 42 42 42 41 41 40 41 41 42 42 43 44 44 44
47 46 48 50 45 37 35 33 33 32 33 33 34 32 36 45 51 53 53 52 51 50 48 47 45 44 43 42 43 43 43 43 43 43 43 43 44 44 44 44 43 42 41
51 52 55 54 47 38 35 35 34 33 33 34 35 35 35 34 36 46 53 54 54 53 51 50 49 48 46 45 44 43 43 42 41 41 40 41 41 41 41 40 40 39 40
58 61 60 56 47 40 38 37 36 35 35 35 35 36 36 36 35 35 36 47 53 54 54 53 51 50 49 48 47 47 46 44 43 43 42 42 42 42 41 41 42 42 43
Wind_Direction
214 219 222 225 225 227 231 233 237 238 237 233 237 236 230 226 228 224 233 225 227 231 235 238 241 243 245 248 250 252 254 256 256 258 259 261 263 265 267 269 271 273 274
219 218 223 225 226 227 227 228 232 236 237 240 244 241 240 240 241 232 225 231 234 233 235 238 241 244 246 249 251 252 254 255 257 258 260 262 265 267 270 272 273 274 274
219 219 222 222 225 226 229 229 230 232 234 238 236 247 243 243 245 249 244 241 239 239 237 238 240 243 245 248 251 253 254 256 258 260 262 265 268 269 269 271 272 272 272
219 222 223 225 227 227 229 232 231 230 233 236 236 235 244 250 250 252 253 249 244 242 244 246 247 248 249 250 252 254 256 259 260 262 262 264 266 269 271 272 272 274 274
220 222 226 229 229 230 231 233 235 234 234 234 238 231 235 235 246 249 252 251 253 250 246 250 251 251 252 253 255 257 260 262 265 267 268 268 269 270 270 272 274 274 275
226 231 232 233 233 235 235 236 237 238 237 237 239 241 241 237 233 238 243 248 243 244 247 249 248 248 250 253 256 258 260 262 263 266 267 268 269 270 273 274 279 274 275
227 235 233 234 236 237 238 239 239 239 240 240 240 241 241 243 243 242 241 245 251 256 256 255 251 251 252 253 251 252 257 257 258 263 267 267 267 268 270 268 274 273 272
230 231 233 238 245 238 234 235 236 236 237 238 240 240 240 241 242 243 243 246 249 247 243 250 247 253 256 257 252 248 259 257 255 258 262 261 264 260 255 267 268 268 268
228 235 240 247 245 243 235 231 233 233 234 235 237 239 240 240 241 242 244 244 244 244 243 246 248 250 251 253 254 255 255 252 250 251 257 261 261 260 262 263 272 272 270
240 240 246 246 242 239 239 237 236 235 236 237 238 239 240 241 241 242 243 243 245 245 246 245 246 246 246 248 251 250 255 255 253 254 254 260 255 261 261 263 266 268 270
247 236 226 243 241 239 240 239 238 237 238 239 240 241 242 243 243 243 243 243 244 244 244 245 246 247 248 249 250 250 251 253 253 255 256 256 263 259 260 264 267 269 268
235 237 240 240 240 239 240 241 243 241 240 241 242 242 242 242 243 244 244 243 243 244 245 246 247 248 249 250 251 251 252 253 253 254 256 257 257 252 259 266 265 268 274
241 240 241 238 238 242 243 246 246 243 243 243 243 244 245 245 245 245 245 245 246 246 247 247 247 249 250 251 253 253 255 256 257 258 258 258 258 261 262 264 263 268 270
247 249 247 247 247 243 242 244 246 246 246 246 245 245 246 247 247 246 247 248 249 250 250 250 251 251 253 253 254 255 257 258 259 259 259 258 259 258 257 260 261 266 268
269 263 258 257 254 250 248 246 246 246 247 247 247 247 247 246 247 247 247 246 246 246 247 249 249 250 252 253 254 255 255 255 256 255 255 253 249 255 261 261 262 261 265
277 273 269 263 257 255 254 252 247 246 248 251 252 250 248 247 246 246 246 245 244 243 242 243 245 244 246 249 252 254 254 255 254 253 253 254 254 253 257 261 264 265 268
282 278 273 268 262 257 252 251 252 251 249 248 248 249 252 251 248 246 246 245 244 245 246 247 247 248 251 255 252 253 253 254 254 255 256 257 259 260 262 264 266 267 268
303 295 285 275 268 263 259 255 251 249 251 250 247 247 247 248 249 249 247 247 246 245 244 246 248 250 252 251 249 251 252 255 251 250 255 256 257 260 261 261 264 266 270
323 319 311 298 283 273 263 256 253 251 251 250 250 247 244 246 246 246 246 246 246 247 247 247 246 248 251 250 248 247 248 249 249 250 253 257 259 260 261 263 266 266 266
320 326 321 309 293 280 272 266 257 252 247 247 247 247 246 243 242 244 245 245 246 247 246 247 246 247 246 248 249 248 250 249 249 252 255 253 254 257 260 260 259 259 260
315 317 323 316 303 287 278 271 265 257 249 245 242 240 241 243 241 241 242 243 243 243 245 244 246 247 244 242 248 245 243 243 244 246 247 248 248 250 252 253 255 260 264
310 313 316 319 307 293 282 274 268 262 257 249 243 242 239 238 240 241 240 240 242 242 242 244 243 243 243 241 240 240 241 241 242 243 244 245 246 250 255 259 262 265 268
304 307 312 315 310 295 284 276 270 263 258 254 250 243 241 240 238 239 240 239 239 241 241 241 243 243 242 242 241 241 242 244 245 246 248 250 253 255 258 262 264 266 268
303 302 307 309 308 294 282 275 269 264 259 255 250 247 245 242 239 238 238 239 238 238 239 241 241 241 243 244 244 244 244 245 246 248 250 251 253 255 257 259 260 263 266
301 300 303 304 302 289 280 273 267 262 258 254 251 247 244 243 243 241 238 237 237 237 236 237 239 240 242 243 244 245 245 247 248 249 250 251 252 254 256 258 262 266 270
300 302 302 302 297 289 279 271 265 260 256 252 250 247 245 243 242 241 240 239 236 236 237 237 236 238 240 241 243 245 246 248 248 248 249 251 254 256 259 262 266 269 272